Other Public Products
Issued by NWS Grand Forks, ND

Home | Current Version | Previous Version | Text Only | Print | Product List | Glossary On
Versions: 1 2 3 4 5 6 7 8 9 10 11 12 13 14 15 16 17 18 19 20 21 22 23 24 25 26 27 28 29 30 31 32 33 34 35 36 37 38 39 40 41 42 43 44 45 46 47 48 49 50
000
FPUS83 KFGF 070031
OPUFGF
PRAIRIE TO PINES WEATHER ROUNDUP
NATIONAL WEATHER SERVICE EASTERN NORTH DAKOTA/GRAND FORKS ND
700 PM CDT FRI MAY 06 2016

 **SATELLITE DATA USED TO AUGMENT SKY COVER AT AUTOMATED STATIONS**
 *****  WEATHER ACROSS EASTERN NORTH DAKOTA  *****

CITY           SKY/WX    TMP DP  RH WIND       PRES   REMARKS
GRAND FORKS    MOSUNNY   65  31  28 N16G28    29.94R
6HR MIN TEMP:  64; 6HR MAX TEMP:  72;

GRAND FORKS AF SUNNY     64  30  27 NE18      29.95R
GRAND CITY NWS NOT AVBL
BUXTON           N/A     65  35  33 N20         N/A
DEVILS LAKE    MOSUNNY   65  32  29 N21       29.99S
6HR MIN TEMP:  62; 6HR MAX TEMP:  70;

FARGO          CLOUDY    67  28  23 N28G35    29.91R
6HR MIN TEMP:  67; 6HR MAX TEMP:  82;

WAHPETON ARPT  CLEAR     68  30  24 N32G41    29.86R
$$

 *****  WEATHER ACROSS CENTRAL AND WESTERN NORTH DAKOTA  *****

CITY           SKY/WX    TMP DP  RH WIND       PRES   REMARKS
JAMESTOWN      PTSUNNY   66  31  27 N25       29.96R
6HR MIN TEMP:  64; 6HR MAX TEMP:  77; 6HR PCP: TRACE;

BISMARCK       MOSUNNY   69  44  40 N17       29.99S
6HR MIN TEMP:  68; 6HR MAX TEMP:  78;

MINOT          SUNNY     70  31  23 N15       30.03S
6HR MIN TEMP:  69; 6HR MAX TEMP:  76;

MINOT AFB      SUNNY     67  31  26 N13       30.02R
6HR MIN TEMP:  63; 6HR MAX TEMP:  70;

GARRISON         N/A     68  36  30 N13G21    30.03R
6HR MIN TEMP:  65; 6HR MAX TEMP:  72;

WILLISTON      SUNNY     70  31  23 N10       30.09S
6HR MIN TEMP:  64; 6HR MAX TEMP:  72;

DICKINSON      PTSUNNY   67  42  40 NE15G21   30.03S
6HR MIN TEMP:  61; 6HR MAX TEMP:  71; 6HR PCP: TRACE;

HETTINGER      PTSUNNY   65  45  48 NE17G25   30.05R
6HR MIN TEMP:  65; 6HR MAX TEMP:  75; 6HR PCP: TRACE;

$$

 *****  OTHER OBSERVATIONS NORTHEAST NORTH DAKOTA  *****

CITY           SKY/WX    TMP DP  RH WIND       PRES   REMARKS
WALHALLA       FAIR      64  32  29 N9        29.96F
LANGDON        FAIR      63  32  31 CALM      29.98F
CAVALIER       FAIR      64  30  27 N12       29.95F
GRAFTON        FAIR      63  30  29 N15       29.97S
CANDO          FAIR      64  32  29 NW9       30.00F
FORT TOTTEN    NOT AVBL
ROLLA          FAIR      64  28  25 NW16G25   30.00S
RUGBY          FAIR      64  32  29 N14       30.00F
 ***** THE ABOVE OBSERVATIONS ARE NON NWS ARE NOT QUALITY
        CONTROLLED AND MAY MIS-REPORT RAIN FOR SNOW...
$$

 *****  OTHER OBSERVATIONS SOUTHEAST NORTH DAKOTA *****

CITY           SKY/WX    TMP DP  RH WIND       PRES   REMARKS
COOPERSTOWN    NOT AVBL
VALLEY CITY    FAIR      63  34  34 N23G30    29.97R
OAKES            N/A    N/A N/A N/A MISG        N/A
GWINNER        FAIR      70  43  37 N25G31    29.90R
SHEYENNE NWR     N/A     70  37  30 N20       29.95
BUFFALO          N/A     64  31  29 N21G33      N/A
WYNDMERE         N/A     73  39  29 N26         N/A
 ***** THE ABOVE OBSERVATIONS ARE NON NWS ARE NOT QUALITY
       CONTROLLED AND MAY MIS-REPORT RAIN FOR SNOW...
$$

  *****  WEATHER ACROSS NORTHERN MINNESOTA  *****

CITY           SKY/WX    TMP DP  RH WIND       PRES   REMARKS
FLAG ISLAND    MOSUNNY   59  28  31 N24G30    29.89R
WARROAD        MOSUNNY   61  34  36 NW15G22   29.92R
ROSEAU         MOSUNNY   63  28  27 N15G24    29.92S
HALLOCK        SUNNY     64  25  22 NE8       29.93F
THF RVR FALLS  MOSUNNY   61  27  27 N18G25    29.95R
6HR MIN TEMP:  61; 6HR MAX TEMP:  72;

HALSTAD          N/A     65  27  23 N22         N/A
FOSSTON        CLOUDY    61  21  21 N28G35    29.92R
BAUDETTE       MOSUNNY   59  28  30 NW16G23   29.88R
6HR MIN TEMP:  59; 6HR MAX TEMP:  72; 6HR PCP: TRACE;

WASKISH        CLOUDY    61  28  29 N12G21    29.87R
CROOKSTON      SUNNY     63  28  27 N15G22    29.95R
$$
  *****  WEATHER ACROSS CENTRAL AND WEST MINNESOTA  *****

CITY           SKY/WX    TMP DP  RH WIND       PRES   REMARKS
BEMIDJI        CLOUDY    58  39  47 NW12G24   29.88R
PARK RAPIDS    MOSUNNY   72  42  34 N17G30    29.80R
6HR MIN TEMP:  72; 6HR MAX TEMP:  90;

WADENA         SUNNY     73  46  38 N15       29.79R
DETROIT LAKES  CLOUDY    63  32  31 N18G32    29.89R
MOORHEAD       CLOUDY    64  25  22 N25G32    29.92R
FERGUS FALLS   MOSUNNY   72  45  37 N16G31    29.79R
ELBOW LAKE     FAIR      73  46  37 N16       29.81R
6HR MIN TEMP:  74; 6HR MAX TEMP:  88;

MORRIS MN      MOSUNNY   79  45  29 N25G35    29.78R
STAPLES        SUNNY     75  41  29 N16       29.77R
WHEATON        CLOUDY    75  45  33 N24G33    29.84S
$$
  *****  WEATHER ELSEWHERE ACROSS MINNESOTA  *****

CITY           SKY/WX    TMP DP  RH WIND       PRES   REMARKS
DULUTH         CLOUDY    75  49  39 NW17G24   29.68R
6HR MIN TEMP:  67; 6HR MAX TEMP:  92; 6HR PCP:  0.44;

INTRNTL FALLS  HAZE      59  30  33 NW16G23   29.82S VSB 1
6HR MIN TEMP:  57; 6HR MAX TEMP:  85; 6HR PCP: TRACE;

ELY            MOSUNNY   66  45  45 NW20G32   29.73R HAZE
CLOQUET        CLOUDY    73  46  38 NW10G18   29.70R
BRAINERD       SUNNY     74  45  35 N22G28    29.75R HAZE
6HR MIN TEMP:  74; 6HR MAX TEMP:  90;

HIBBING        MOSUNNY   70  46  42 NW24G30   29.73R
6HR MIN TEMP:  70; 6HR MAX TEMP:  87;

ALEXANDRIA     MOSUNNY   75  46  35 N21G28    29.78R
6HR MIN TEMP:  75; 6HR MAX TEMP:  89;

SAINT CLOUD    MOSUNNY   85  50  29 NW21G28   29.67R
6HR MIN TEMP:  85; 6HR MAX TEMP:  89;

MINNEAPOLIS    CLOUDY    86  52  30 NW16G23   29.64R
6HR MIN TEMP:  85; 6HR MAX TEMP:  92;

$$

  *****  WEATHER ACROSS SOUTH DAKOTA  *****

CITY           SKY/WX    TMP DP  RH WIND       PRES   REMARKS
SIOUX FALLS    PTSUNNY   85  52  32 W8        29.79S
6HR MIN TEMP:  80; 6HR MAX TEMP:  87;

BROOKINGS      CLOUDY    77  49  37 N16G29    29.81R
WATERTOWN      CLOUDY    68  50  52 NE13      29.86R
6HR MIN TEMP:  73; 6HR MAX TEMP:  91;

HURON          PTSUNNY   79  49  34 NE23G37   29.79R
6HR MIN TEMP:  79; 6HR MAX TEMP:  92;

SISSETON         N/A     76  42  29 NE25G32   29.83R
ABERDEEN       MOSUNNY   78  44  29 N24G31    29.87R
6HR MIN TEMP:  78; 6HR MAX TEMP:  93; 6HR PCP: TRACE;

MITCHELL       PTSUNNY   84  57  39 NW7       29.78S
PIERRE         PTSUNNY   77  49  37 NE24G33   29.86R
6HR MIN TEMP:  77; 6HR MAX TEMP:  87;

MOBRIDGE       PTSUNNY   75  46  35 N16       29.91R
RAPID CITY     CLOUDY    69  48  47 N20G26    30.00R
6HR MIN TEMP:  69; 6HR MAX TEMP:  78;

$$

  *****  SOME WEATHER IN NEARBY STATES *****

CITY           SKY/WX    TMP DP  RH WIND       PRES   REMARKS
GLASGOW MT     SUNNY     70  30  22 N8        30.12F
6HR MIN TEMP:  65; 6HR MAX TEMP:  72;

GREAT FALLS MT CLOUDY    56  42  59 NE3       30.20F
6HR MIN TEMP:  50; 6HR MAX TEMP:  56;

CHEYENNE WY    LGT RAIN  62  40  44 E14       29.94R
6HR MIN TEMP:  67; 6HR MAX TEMP:  78;

SCOTTSBLUFF NE PTSUNNY   77  47  34 E16       29.87R
6HR MIN TEMP:  72; 6HR MAX TEMP:  81;

OMAHA NE       PTSUNNY   86  43  22 S12       29.84S
6HR MIN TEMP:  84; 6HR MAX TEMP:  88;

DES MOINES IA  MOSUNNY   82  43  25 SW15      29.84F
6HR MIN TEMP:  82; 6HR MAX TEMP:  86;

DAVENPORT IA   SUNNY     83  45  26 W15       29.83F
6HR MIN TEMP:  80; 6HR MAX TEMP:  87;

CHICAGO IL     PTCLDY    80  47  31 W12       29.77F
6HR MIN TEMP:  74; 6HR MAX TEMP:  82;

EAU CLAIRE WI  MOSUNNY   86  41  20 SW12G22   29.65F
6HR MIN TEMP:  86; 6HR MAX TEMP:  90;

LA CROSSE WI   SUNNY     87  42  20 W9        29.68F
6HR MIN TEMP:  86; 6HR MAX TEMP:  91;

$$

  *****  SOME NATIONAL WEATHER *****

CITY           SKY/WX    TMP DP  RH WIND       PRES   REMARKS
LA GUARDIA NY  CLOUDY    52  50  93 E15       29.79R               C1F1C2F2C3F3C4F4C5F5C6F6C7F7C8F8C9F9CaFaCbFbCcFcCdFdCe!



USA.gov is the U.S. government's official web portal to all federal, state and local government web resources and services.